Home   Weather   Warren   Past weeks
Flag for USA

Past Weather in Warren, Michigan, USA — Yesterday and Last 2 Weeks

Now
79 °F

Sunny.


Feels Like: 81 °F
Forecast: 80 / 73 °F
Wind: 8 mph from Southwest

Location: Detroit City Airport

Current Time: Jul 16, 2019 at 9:46:16 am

Latest Report: Jul 16, 2019 at 8:53 am


Visibility: 10 mi

Pressure: 29.98 "Hg

Humidity: 69%

Dew Point: 68 °F

Location of WarrenLocation

Past Weather in Warren — Graph

°F

Warren Temperature Yesterday

Maximum temperature yesterday: 89 °F (at 3:53 pm)
Minimum temperature yesterday: 64 °F (at 5:53 am)
Average temperature yesterday: 77 °F

High & Low Weather Summary for the Past Weeks

 TemperatureHumidityPressure
High92 °F (Jul 5, 2:55 pm)93% (Jul 2, 11:53 pm)30.14 "Hg (Jul 2, 11:53 pm)
Low59 °F (Jul 8, 5:53 am)34% (Jul 14, 1:53 pm)29.24 "Hg (Jul 11, 6:53 am)
Average76 °F64%29.95 "Hg
* Reported Jul 1 7:53 am — Jul 16 7:53 am, Warren. Weather by CustomWeather, © 2019

Note: Actual official high and low records may vary slightly from our data, if they occured in-between our weather recording intervals... More about our weather records

Advertising

Warren Weather History for the Previous 24 Hours

Scroll right to see more
 ConditionsComfort  
Time TempWeatherWind HumidityBarometerVisibility
7:53 am
Tue, Jul 16
76 °FSunny.6 mph77%29.99 "Hg10 mi
6:53 am75 °FScattered clouds.3 mph79%29.98 "Hg10 mi
5:53 am73 °FClear.5 mph81%29.98 "Hg10 mi
4:53 am74 °FClear.3 mph79%29.99 "Hg10 mi
3:53 am76 °FClear.5 mph77%29.96 "Hg10 mi
2:53 am76 °FClear.7 mph80%29.99 "Hg10 mi
1:53 am75 °FClear.3 mph88%29.99 "Hg10 mi
12:53 am75 °FClear.3 mph85%30.01 "Hg10 mi
11:53 pm
Mon, Jul 15
76 °FClear.6 mph88%30.00 "Hg10 mi
10:53 pm75 °FClear.5 mph88%29.98 "Hg10 mi
9:53 pm75 °FPassing clouds.6 mph85%30.00 "Hg10 mi
9:06 pm73 °FLight rain. Broken clouds.9 mph88%30.01 "Hg7 mi
8:57 pm73 °FHeavy rain. Mostly cloudy.14 mph84%30.01 "Hg7 mi
7:53 pm84 °FOvercast.8 mph53%29.98 "Hg10 mi
6:53 pm87 °FSunny.9 mph50%29.97 "Hg10 mi
5:53 pm88 °FPassing clouds.15 mph50%29.98 "Hg10 mi
4:53 pm89 °FSunny.12 mph48%30.00 "Hg10 mi
3:53 pm89 °FSunny.12 mph43%30.01 "Hg10 mi
2:53 pm88 °FSunny.7 mph40%30.04 "Hg10 mi
1:53 pm86 °FSunny.10 mph39%30.06 "Hg10 mi
12:53 pm85 °FBroken clouds.9 mph40%30.09 "Hg10 mi
11:53 am84 °FPassing clouds.10 mph46%30.09 "Hg10 mi
10:53 am81 °FPassing clouds.9 mph49%30.10 "Hg10 mi
9:53 am80 °FPassing clouds.9 mph52%30.11 "Hg10 mi
Weather by CustomWeather, © 2019

See weather overview

LIVE PARTIAL LUNAR ECLIPSE – Watch the eclipse as it happens